Regional Weather Roundup
Issued by NWS

Home | Current Version | Previous Version | Text Only | Print | Product List | Glossary Off
Versions: 1 2 3 4 5 6 7 8 9 10 11 12 13 14 15 16 17 18 19 20 21 22 23 24 25 26 27 28 29 30 31 32 33 34 35 36 37 38 39 40 41 42 43 44 45 46 47 48 49 50

000
ASUS43 KOAX 231810
RWRNE

WEATHER ROUNDUP FOR NEBRASKA
NATIONAL WEATHER SERVICE OMAHA NE
1200 PM CST THU FEB 23 2017

NOTES: SATELLITE DATA IS BEING USED TO AUGMENT CLOUD COVER ABOVE
       12000 FEET.
       "FAIR" INDICATES FEW OR NO CLOUDS BELOW 12,000 FEET WITH NO
       SIGNIFICANT WEATHER AND/OR OBSTRUCTIONS TO VISIBILITY.

  * THESE STATIONS DO NOT REPORT WEATHER SUCH AS RAIN...SNOW OR FOG.

NEZ001>004-019>022-054>056-231900-
NEBRASKA PANHANDLE

CITY           SKY/WX    TMP DP  RH WIND       PRES   REMARKS
SCOTTSBLUFF    SNOW      25  21  85 NE20G28   29.69F VSB 1/2 WCI  11
6HR MIN TEMP:  25; 6HR MAX TEMP:  29; 6HR PCP:  0.33;

ALLIANCE       SNOW      22  19  89 NE17      29.69S VSB 1/2 WCI   8
6HR MIN TEMP:  22; 6HR MAX TEMP:  28; 6HR PCP: TRACE;

CHADRON        HAZE      25  20  81 NE20G29   29.80R VSB 3/4 WCI  11
6HR MIN TEMP:  25; 6HR MAX TEMP:  29; 6HR PCP: TRACE;

KIMBALL        LGT SNOW  25  25 100 NE17      29.59S VSB 1   WCI  11
SIDNEY         FRZ RAIN  25  23  92 NE23G29   29.61F FOG     WCI  10
6HR MIN TEMP:  25; 6HR MAX TEMP:  31; 6HR PCP: TRACE;

$$

NEZ057>060-069>072-079>082-231900-
SOUTHWEST NEBRASKA

CITY           SKY/WX    TMP DP  RH WIND       PRES   REMARKS
NORTH PLATTE   CLOUDY    30  24  78 NE18G29   29.65F WCI  18
6HR MIN TEMP:  29; 6HR MAX TEMP:  34;

IMPERIAL       SNOW      29  28  96 NE21      29.60F VSB 1/2 WCI  16
6HR MIN TEMP:  29; 6HR MAX TEMP:  34; 6HR PCP: TRACE;

LEXINGTON      FOG       31  30  95 NE18G24   29.64F VSB 1   WCI  20
MCCOOK         CLOUDY    32  32 100 NE20      29.60F FOG     WCI  20
6HR MIN TEMP:  32; 6HR MAX TEMP:  38;

OGALLALA       CLOUDY    31  26  81 NE17G23   29.64F WCI  19
$$

NEZ005>010-023>029-035>040-094-231900-
NORTH CENTRAL NEBRASKA

CITY           SKY/WX    TMP DP  RH WIND       PRES   REMARKS
VALENTINE      SNOW      26  22  84 NE17G24   29.81F VSB 1/4 WCI  13
6HR MIN TEMP:  25; 6HR MAX TEMP:  27; 6HR PCP:  0.24;

AINSWORTH      LGT SNOW  27  26  96 NE17      29.78S WCI  14
BROKEN BOW     CLOUDY    30  28  92 NE22G30   29.67F WCI  17
6HR MIN TEMP:  29; 6HR MAX TEMP:  32; 6HR PCP: TRACE;

O`NEILL        LGT SNOW  31  29  94 NE20G25   29.79F VSB 1   WCI  19
ORD            MIX PCPN  31  27  85 NE16G23   29.71F WCI  20
6HR MIN TEMP:  30; 6HR MAX TEMP:  31; 6HR PCP: TRACE;

THEDFORD       LGT SNOW  28  25  90 NE17G26   29.72F WCI  15
$$

NEZ041-046>049-061>064-073>077-083>087-231900-
SOUTH CENTRAL NEBRASKA

CITY           SKY/WX    TMP DP  RH WIND       PRES   REMARKS
GRAND ISLAND   CLOUDY    34  32  92 NE25G32   29.66F WCI  21
6HR MIN TEMP:  32; 6HR MAX TEMP:  35;

AURORA         CLOUDY    34  33  96 NE23G29   29.67F WCI  22
HASTINGS       CLOUDY    34  32  92 NE23G31   29.65F FOG     WCI  22
6HR MIN TEMP:  34; 6HR MAX TEMP:  38;

HEBRON         CLOUDY    42  34  73 NE18G25   29.62F
HOLDREGE       CLOUDY    33  31  93 NE26      29.62F WCI  20
KEARNEY *      CLOUDY    34  28  80 NE21G28   29.66S WCI  22
YORK           CLOUDY    36  34  93 NE18G28   29.67S WCI  25
$$

NEZ011>018-030>034-042>045-231900-
NORTHEAST NEBRASKA

CITY           SKY/WX    TMP DP  RH WIND       PRES   REMARKS
NORFOLK        FLURRIES  32  29  88 N18G25    29.74F WCI  20
6HR MIN TEMP:  32; 6HR MAX TEMP:  33; 6HR PCP: TRACE;

ALBION         CLOUDY    33  31  92 NE20G26   29.72F FOG     WCI  21
BLAIR          CLOUDY    39  34  83 NE22G29   29.67F WCI  28
FREMONT        CLOUDY    38  33  84 NE14G20   29.69F WCI  29
TEKAMAH        CLOUDY    38  32  79 NE17      29.73F WCI  28
6HR MIN TEMP:  36; 6HR MAX TEMP:  38;

WAYNE          CLOUDY    35  31  87 NE21      29.76F WCI  23
$$

NEZ050>053-065>068-078-088>093-231900-
SOUTHEAST NEBRASKA

CITY           SKY/WX    TMP DP  RH WIND       PRES   REMARKS
LINCOLN        CLOUDY    41  33  73 NE17      29.67F
6HR MIN TEMP:  37; 6HR MAX TEMP:  41;

OMAHA EPPLEY   CLOUDY    41  33  73 NE15      29.69F
6HR MIN TEMP:  37; 6HR MAX TEMP:  41;

BEATRICE       CLOUDY    41  36  82 NE14      29.63F
FALLS CITY     PTSUNNY   47  38  71 E22G29    29.61F
6HR MIN TEMP:  40; 6HR MAX TEMP:  48; 6HR PCP: TRACE;

NEBRASKA CITY  CLOUDY    41  35  77 E18G24    29.64F
PLATTSMOUTH    CLOUDY    40  34  77 NE18G29   29.65F WCI  31
$$

NEZ044-045-051>053-067-231900-
OMAHA AREA

CITY           SKY/WX    TMP DP  RH WIND       PRES   REMARKS
OMAHA EPPLEY   CLOUDY    41  33  73 NE15      29.69F
6HR MIN TEMP:  37; 6HR MAX TEMP:  41;

BLAIR          CLOUDY    39  34  83 NE22G29   29.67F WCI  28
FREMONT        CLOUDY    38  33  84 NE14G20   29.69F WCI  29
MILLARD        CLOUDY    42  36  79 NE7       29.68F
OFFUTT AFB     CLOUDY    42  35  77 NE14G20   29.66F
PLATTSMOUTH    CLOUDY    40  34  77 NE18G29   29.65F WCI  31
WAHOO          CLOUDY    39  33  81 NE17G23   29.68F WCI  29
$$




USA.gov is the U.S. government's official web portal to all federal, state and local government web resources and services.